Kezdőlap
METAR-TAF:

METAR-TAF

Repülőterek :

Newton Municipal Airport

Newton, Iowa, Amerikai Egyesült Államok

földrajzi szélesség: 41-41N, földrajzi hosszúság: 093-01W, magasság: 290 m

Jelenlegi meteorológiai megfigyelések

A jelentés 12 perccel ezelõtt készült, 23:55 UTC
Déli szél 7 kt
Hőmérséklet 6°C
Páratartalom 70%
Légköri nyomás 1015 hPa
Látótávolság: 16.1 km
Derült ég

METAR: KTNU 222355Z AUTO 19007KT 10SM CLR 06/01 A2997 RMK A01

Idő: 18:07 (00:07 UTC)


TAF: hiányzik

Meteorológiai megfigyelések és előrejelzések több, mint 4000 repülőtéren (METAR és TAF jelentéseket).

A térképen piros és sárga pontok jelzik az elérhető meteorológiai állomásokat.

Mozgassa az egeret a pont fölött, hogy megjelenjen az állomás neve.

Azután kattintson az időjárási megfigyelések és előrejelzések megtekintéséhez.

A térkép megváltoztatása: kattintson a fekete keresztel jelölt zöld gombra ráközelítéshez, a vonallal jelölt zöld gombra távolításhoz, vagy a zöld nyilakra a szomszédos térképek eléréséhez.


METAR-TAF: